Date,TemperatureHighF,TemperatureAvgF,TemperatureLowF,DewpointHighF,DewpointAvgF,DewpointLowF,HumidityHigh,HumidityAvg,HumidityLow,PressureMaxIn,PressureMinIn,WindSpeedMaxMPH,WindSpeedAvgMPH,GustSpeedMaxMPH,PrecipitationSumIn
2013-1-4,16,16,16,10,10,10,78,78,78,0.00,40.00,4,4,10,0.00
2013-1-7,34,34,34,15,15,15,46,46,46,0.00,40.00,12,12,24,0.00
2013-1-10,19,19,19,17,17,17,91,91,91,0.00,40.00,2,2,2,0.00
2013-1-14,22,22,22,2,2,2,43,43,43,0.00,40.00,7,7,17,0.00
2013-1-20,4,4,4,-8,-8,-8,57,57,57,0.00,40.00,10,10,17,0.00
2013-1-30,26,23,18,24,20,13,93,88,80,0.00,40.00,11,8,21,0.00
2013-1-31,11,11,11,4,4,4,72,72,72,0.00,40.00,7,7,14,0.00
2013-2-1,-6,-6,-6,-16,-16,-16,60,60,60,0.00,40.00,7,7,14,0.00
2013-2-2,10,10,10,-5,-5,-5,50,50,50,0.00,40.00,4,4,9,0.00
2013-2-4,17,10,7,4,-1,-6,79,60,35,0.00,40.00,4,1,7,0.00
2013-2-5,26,24,22,19,18,17,80,76,73,0.00,40.00,5,4,13,0.00
2013-2-6,19,19,19,9,9,9,66,66,66,0.00,40.00,4,4,6,0.00
2013-2-7,29,27,26,25,23,22,88,87,86,0.00,40.00,3,1,12,0.00
2013-2-8,27,21,17,9,8,6,70,59,42,0.00,40.00,6,5,12,0.00
2013-2-9,-6,-6,-6,-10,-10,-10,81,81,81,0.00,40.00,0,0,1,0.00
2013-2-11,39,39,39,37,37,37,93,93,93,0.00,40.00,9,9,15,0.00
2013-2-12,30,27,23,13,11,9,57,52,50,0.00,40.00,6,4,14,0.00
2013-2-13,35,30,25,23,20,17,91,70,48,0.00,40.00,4,4,7,0.00
2013-2-14,32,31,30,30,24,21,93,78,64,0.00,40.00,12,9,22,0.00
2013-2-15,25,20,15,2,1,-1,50,42,35,0.00,40.00,9,7,16,0.00
2013-2-16,6,6,6,-2,-2,-2,69,69,69,0.00,40.00,2,2,4,0.00
2013-2-18,36,14,35,28,-50,-100,99,86,57,0.00,40.00,7,3,14,0.00
2013-2-19,12,11,8,-4,-6,-7,49,46,44,0.00,40.00,17,12,27,0.00
2013-2-20,25,18,10,3,2,0,64,50,37,0.00,40.00,11,7,17,0.00
2013-2-21,-2,-2,-2,-7,-7,-7,82,82,82,0.00,40.00,1,1,4,0.00
2013-2-22,30,27,23,25,23,20,91,84,76,0.00,40.00,2,1,9,0.00
2013-2-23,30,27,25,21,19,18,86,73,61,0.00,40.00,7,5,17,0.00
2013-2-25,36,34,29,20,19,18,61,54,50,0.00,40.00,4,2,10,0.00
2013-2-26,32,13,31,28,-50,-100,99,90,64,0.00,40.00,5,2,17,0.00
2013-2-27,34,33,32,27,26,24,79,74,70,0.00,40.00,7,7,17,0.00
2013-2-28,33,32,31,20,18,16,62,58,54,0.00,40.00,9,7,18,0.00
2013-3-1,30,26,22,16,11,8,74,55,42,0.00,40.00,7,3,15,0.00
2013-3-2,27,26,24,3,2,1,39,35,33,0.00,40.00,10,8,16,0.00
2013-3-3,23,23,23,9,9,9,55,55,55,0.00,40.00,1,1,4,0.00
2013-3-4,32,26,16,14,11,9,72,53,44,0.00,40.00,6,3,14,0.00
2013-3-5,28,27,25,24,22,20,89,84,80,0.00,40.00,5,4,9,0.00
2013-3-6,27,27,26,21,21,20,80,77,77,0.00,40.00,9,8,17,0.00
2013-3-7,28,7,26,20,-70,-100,99,91,53,0.00,40.00,2,0,9,0.00
2013-3-8,5,2,5,2,-56,-100,99,94,88,0.00,40.00,0,0,1,0.00
2013-3-9,39,34,31,30,27,24,75,72,70,0.00,40.00,6,3,14,0.00
2013-3-10,35,35,35,33,33,33,94,94,94,0.00,40.00,1,1,4,0.00
2013-3-11,34,32,28,30,27,20,93,84,73,0.00,40.00,9,6,19,0.00
2013-3-12,29,26,22,22,16,10,85,66,52,0.00,40.00,12,7,19,0.00
2013-3-13,32,24,16,11,4,-3,77,48,23,0.00,40.00,12,9,21,0.00
2013-3-14,34,23,9,25,13,5,86,68,43,0.00,40.00,7,2,12,0.00
2013-3-15,37,31,26,30,27,24,92,85,74,0.00,40.00,4,2,16,0.00
2013-3-16,30,24,18,24,14,9,92,68,43,0.00,40.00,9,4,16,0.00
2013-3-17,24,9,9,10,-45,-100,99,79,39,0.00,40.00,6,2,13,0.00
2013-3-18,31,23,15,28,19,9,88,83,72,0.00,40.00,11,3,24,0.00
2013-3-19,29,22,12,5,2,-1,72,44,30,0.00,40.00,17,12,32,0.00
2013-3-20,20,13,4,-2,-5,-9,55,45,37,0.00,40.00,14,8,26,0.00
2013-3-21,30,14,2,5,1,-9,73,57,32,0.00,40.00,10,4,16,0.00
2013-3-22,38,22,6,10,6,0,80,53,30,0.00,40.00,10,3,12,0.00
2013-3-23,44,27,11,20,12,6,88,60,28,0.00,40.00,4,1,12,0.00
2013-3-24,33,30,27,21,20,17,78,66,55,0.00,40.00,7,2,17,0.00
2013-3-25,36,30,21,20,18,14,80,61,52,0.00,40.00,10,6,18,0.00
2013-3-26,39,34,28,22,18,17,63,53,41,0.00,40.00,11,6,19,0.00
2013-3-27,45,30,23,21,1,-100,99,56,29,0.00,40.00,9,3,14,0.00
2013-3-28,49,34,20,19,15,12,83,52,25,0.00,40.00,6,2,12,0.00
2013-3-29,50,34,19,23,16,13,90,57,24,0.00,40.00,4,-8,11,0.00
2013-3-30,51,38,26,41,28,-100,93,72,42,0.00,40.00,11,4,20,0.00
2013-3-31,42,37,31,38,27,9,93,72,37,0.00,40.00,12,7,24,0.00
2013-4-1,34,28,22,10,7,4,53,41,28,0.00,40.00,13,7,26,0.00
2013-4-2,37,28,21,11,8,4,60,43,27,0.00,40.00,12,6,21,0.00
2013-4-3,43,22,15,14,10,8,82,65,23,0.00,40.00,6,1,14,0.00
2013-4-4,54,40,26,27,20,14,67,46,33,0.00,40.00,9,-4,22,0.00
2013-4-5,38,27,24,28,20,16,86,80,47,0.00,40.00,6,2,9,0.00
2013-4-6,55,40,30,48,33,27,92,78,40,0.00,40.00,13,4,27,0.00
2013-4-7,50,40,34,43,30,25,86,70,42,0.00,40.00,14,5,27,0.00
2013-4-8,42,38,33,39,35,30,92,88,79,0.00,40.00,4,-52,12,0.00
2013-4-9,42,38,34,39,36,29,95,91,75,0.00,40.00,5,2,17,0.00
2013-4-10,33,32,31,32,30,25,93,89,74,0.00,40.00,1,1,17,0.00
2013-4-11,34,33,31,32,31,30,94,93,91,0.00,40.00,7,4,24,0.00
2013-4-12,36,33,31,33,30,29,94,91,82,0.00,40.00,7,3,14,0.00
2013-4-13,36,33,29,29,24,21,90,70,53,0.00,40.00,10,5,18,0.00
2013-4-14,37,32,25,33,28,23,92,87,77,0.00,40.00,7,4,22,0.00
2013-4-15,40,15,34,38,-48,-100,99,90,53,0.00,40.00,9,1,12,0.00
2013-4-16,50,38,27,26,24,22,86,61,35,0.00,40.00,9,5,21,0.00
2013-4-17,41,36,27,36,31,24,92,82,57,0.00,40.00,6,4,18,0.00
2013-4-18,38,38,38,36,36,36,93,93,92,0.00,40.00,5,5,13,0.00
2013-4-19,38,33,28,36,27,15,93,78,50,0.00,40.00,17,9,29,0.00
2013-4-20,44,31,21,18,10,1,81,45,18,0.00,40.00,11,4,21,0.00
2013-4-21,49,30,22,34,24,15,91,77,47,0.00,40.00,5,2,14,0.00
2013-4-22,63,53,41,41,35,31,91,57,32,0.00,40.00,7,3,14,0.00
2013-4-23,53,45,35,44,35,27,91,71,50,0.00,40.00,10,6,24,0.00
2013-4-24,53,44,39,27,20,16,53,42,23,0.00,40.00,8,5,24,0.00
2013-4-25,46,36,27,33,31,18,89,81,34,0.00,40.00,8,4,24,0.00
2013-4-26,71,52,27,37,31,23,87,52,25,0.00,40.00,14,6,24,0.00
2013-4-27,71,56,41,45,40,35,93,59,34,0.00,40.00,15,5,22,0.00
2013-4-28,75,55,33,51,35,31,94,57,23,0.00,40.00,7,2,18,0.00
2013-4-29,71,57,44,57,47,38,91,70,40,0.00,40.00,12,3,21,0.00
2013-4-30,86,62,53,56,34,-100,99,65,25,0.00,40.00,14,7,28,0.00
2013-5-6,78,35,45,41,-31,-100,99,67,19,0.00,40.00,4,1,8,0.00
2013-5-7,61,21,38,43,-33,-100,99,93,48,0.00,40.00,1,0,4,0.00
2013-5-8,61,18,39,45,-42,-100,99,92,53,0.00,40.00,1,0,4,0.00
2013-5-9,64,48,49,54,25,-100,99,82,60,0.00,40.00,6,-8,17,0.00
2013-5-10,58,47,40,42,35,-100,93,74,50,0.00,40.00,6,3,14,0.00
2013-5-11,52,46,39,46,28,-100,93,59,25,0.00,40.00,17,8,29,0.00
2013-5-12,54,43,30,24,21,15,66,43,23,0.00,40.00,13,9,25,0.00
2013-5-13,62,47,23,29,19,16,91,43,17,0.00,40.00,7,4,14,0.00
2013-5-14,62,39,62,17,-27,-100,99,48,17,0.00,40.00,7,4,14,0.00
2013-5-15,59,3,55,41,-92,-100,99,96,50,0.00,40.00,2,0,11,0.00
2013-5-16,80,32,49,48,-28,-100,99,73,28,0.00,40.00,5,1,11,0.00
2013-5-17,58,53,54,32,22,-100,40,40,37,0.00,40.00,4,3,11,0.00
2013-5-18,65,28,49,52,-22,-100,99,91,40,0.00,40.00,4,1,11,0.00
2013-5-19,71,18,52,64,-51,-100,99,96,67,0.00,40.00,2,0,7,0.00
2013-5-20,-200,0,200,-100,-100,-100,99,99,99,0.00,40.00,0,0,0,0.00
2013-5-21,-200,0,200,-100,-100,-100,99,99,99,0.00,40.00,0,0,0,0.00
2013-5-22,62,29,51,59,-19,-100,99,95,88,0.00,40.00,4,1,15,0.00
2013-5-23,53,30,38,49,-10,-100,99,90,53,0.00,40.00,11,4,17,0.00
2013-5-24,54,22,29,39,-26,-100,99,87,30,0.00,40.00,3,0,7,0.00
2013-5-25,66,56,45,42,35,30,85,49,28,0.00,40.00,9,4,17,0.00
2013-5-26,65,56,33,45,33,31,93,50,29,0.00,40.00,7,3,18,0.00
2013-5-27,65,55,50,52,42,32,93,68,30,0.00,40.00,8,4,24,0.00
2013-5-28,61,55,50,57,52,48,93,90,84,0.00,40.00,4,-44,12,0.00
2013-5-29,61,61,61,56,56,56,84,84,84,0.00,40.00,0,0,3,0.00
2013-6-18,-200,0,200,-100,-100,-100,99,99,99,0.00,40.00,0,0,0,0.00
2013-6-19,80,60,40,53,36,-100,99,57,30,0.00,40.00,6,2,12,0.00
2013-6-20,79,47,50,54,21,-100,99,82,43,0.00,40.00,6,1,15,0.00
2013-7-2,-200,0,200,-100,-100,-100,99,99,99,0.00,40.00,0,0,0,0.00
2013-7-3,-200,0,200,-100,-100,-100,99,99,99,0.00,40.00,0,0,0,0.00
2013-7-4,-200,0,200,-100,-100,-100,99,99,99,0.00,40.00,0,0,0,0.00
2013-7-5,-200,0,200,-100,-100,-100,99,99,99,0.00,40.00,0,0,0,0.00
2013-7-6,-200,0,200,-100,-100,-100,99,99,99,0.00,40.00,0,0,0,0.00
2013-7-7,-200,0,200,-100,-100,-100,99,99,99,0.00,40.00,0,0,0,0.00
2013-7-8,86,14,71,68,-72,-100,99,92,46,0.00,40.00,4,0,13,0.00
2013-7-9,82,74,65,74,68,63,93,81,64,0.00,40.00,10,4,16,0.00
2013-7-10,-200,0,200,-100,-100,-100,99,94,99,0.00,40.00,9,0,14,0.00
2013-7-11,-200,0,200,-100,-100,-100,99,99,99,0.00,40.00,0,0,0,0.00
2013-7-12,-200,0,200,-100,-100,-100,99,99,99,0.00,40.00,0,0,0,0.00
2013-7-13,-200,0,200,-100,-100,-100,99,99,99,0.00,40.00,0,0,0,0.00
2013-7-14,-200,0,200,-100,-100,-100,99,99,99,0.00,40.00,0,0,0,0.00
2013-7-15,-200,0,200,-100,-100,-100,99,99,99,0.00,40.00,2,0,11,0.00
2013-7-16,-200,0,200,-100,-100,-100,99,99,99,0.00,40.00,0,0,0,0.00
2013-7-17,-200,0,200,-100,-100,-100,99,99,99,0.00,40.00,0,0,0,0.00
2013-7-18,-200,0,200,-100,-100,-100,99,99,99,0.00,40.00,0,0,0,0.00
2013-7-19,-200,0,200,-100,-100,-100,99,99,99,0.00,40.00,0,0,0,0.00
2013-7-20,-200,0,200,-100,-100,-100,99,98,99,0.00,40.00,0,0,0,0.00
2013-7-21,-200,0,200,-100,-100,-100,99,99,99,0.00,40.00,0,0,0,0.00
2013-7-22,-200,0,200,-100,-100,-100,99,99,99,0.00,40.00,0,0,0,0.00
2013-7-23,-200,0,200,-100,-100,-100,99,99,99,0.00,40.00,0,0,0,0.00
2013-7-24,-200,0,200,-100,-100,-100,99,99,99,0.00,40.00,0,0,0,0.00
2013-7-25,-200,0,200,-100,-100,-100,99,99,99,0.00,40.00,0,0,0,0.00
2013-7-26,-200,0,200,-100,-100,-100,99,99,99,0.00,40.00,0,0,0,0.00
2013-7-27,-200,0,200,-100,-100,-100,99,99,99,0.00,40.00,0,0,0,0.00
2013-7-28,-200,0,200,-100,-100,-100,99,99,99,0.00,40.00,0,0,0,0.00
2013-7-29,-200,0,200,-100,-100,-100,99,99,99,0.00,40.00,0,0,0,0.00
2013-7-30,-200,0,200,-100,-100,-100,99,99,99,0.00,40.00,0,0,0,0.00
2013-7-31,-200,0,200,-100,-100,-100,99,99,99,0.00,40.00,0,0,0,0.00
2013-8-1,-200,0,200,-100,-100,-100,99,99,99,0.00,40.00,0,0,0,0.00
2013-8-2,-200,0,200,-100,-100,-100,99,99,99,0.00,40.00,0,0,0,0.00
2013-8-3,-200,0,200,-100,-100,-100,99,99,99,0.00,40.00,0,0,0,0.00
2013-8-4,-200,0,200,-100,-100,-100,99,99,99,0.00,40.00,0,0,0,0.00
2013-8-5,-200,0,200,-100,-100,-100,99,99,99,0.00,40.00,0,0,0,0.00
2013-8-6,-200,0,200,-100,-100,-100,99,99,99,0.00,40.00,0,0,0,0.00
2013-8-7,-200,0,200,-100,-100,-100,99,99,99,0.00,40.00,0,0,0,0.00
2013-8-8,-200,0,200,-100,-100,-100,99,99,99,0.00,40.00,0,0,0,0.00
2013-8-9,-200,0,200,-100,-100,-100,99,99,99,0.00,40.00,0,0,0,0.00
2013-8-10,-200,0,200,-100,-100,-100,99,99,99,0.00,40.00,0,0,0,0.00
2013-8-11,-200,0,200,-100,-100,-100,99,99,99,0.00,40.00,0,0,0,0.00
2013-8-12,-200,0,200,-100,-100,-100,99,99,99,0.00,40.00,0,0,0,0.00
2013-8-13,-200,0,200,-100,-100,-100,99,98,99,0.00,40.00,0,0,0,0.00
2013-8-14,-200,0,200,-100,-100,-100,99,99,99,0.00,40.00,0,0,0,0.00
2013-8-15,-200,0,200,-100,-100,-100,99,94,99,0.00,40.00,0,0,0,0.00
2013-8-16,-200,0,200,-100,-100,-100,99,98,99,0.00,40.00,0,0,0,0.00
2013-8-17,-200,0,200,-100,-100,-100,99,98,99,0.00,40.00,0,0,0,0.00
2013-8-18,-200,0,200,-100,-100,-100,99,99,99,0.00,40.00,0,0,0,0.00
2013-8-19,-200,0,200,-100,-100,-100,99,98,99,0.00,40.00,0,0,0,0.00
2013-8-20,-200,0,200,-100,-100,-100,99,99,99,0.00,40.00,0,0,0,0.00
2013-8-21,-200,0,200,-100,-100,-100,99,99,99,0.00,40.00,0,0,0,0.00
2013-8-22,-200,0,200,-100,-100,-100,99,99,99,0.00,40.00,0,0,0,0.00
2013-8-23,-200,0,200,-100,-100,-100,99,99,99,0.00,40.00,0,0,0,0.00
2013-8-24,-200,0,200,-100,-100,-100,99,98,99,0.00,40.00,0,0,0,0.00
2013-8-25,-200,0,200,-100,-100,-100,99,99,99,0.00,40.00,0,0,0,0.00
2013-8-26,-200,0,200,-100,-100,-100,99,99,99,0.00,40.00,0,0,0,0.00
2013-8-27,-200,0,200,-100,-100,-100,99,99,99,0.00,40.00,0,0,0,0.00
2013-8-28,87,86,83,62,62,60,45,43,42,0.00,40.00,3,2,7,0.00
2013-8-29,87,42,87,62,-22,-100,99,72,42,0.00,40.00,3,-20,7,0.00
2013-8-30,-200,0,200,-100,-100,-100,99,99,99,0.00,40.00,0,0,0,0.00
2013-8-31,84,12,81,54,-77,-100,99,89,36,0.00,40.00,3,0,9,0.00
2013-9-1,-200,0,200,-100,-100,-100,99,99,99,0.00,40.00,0,0,0,0.00
2013-9-2,-200,0,200,-100,-100,-100,99,99,99,0.00,40.00,0,0,0,0.00
2013-9-3,43,8,40,41,-73,-100,99,98,93,0.00,40.00,0,0,1,0.00
2013-9-4,-200,0,200,-100,-100,-100,99,99,99,0.00,40.00,0,0,0,0.00
2013-9-5,-200,0,200,-100,-100,-100,99,99,99,0.00,40.00,0,0,0,0.00
2013-9-6,-200,0,200,-100,-100,-100,99,99,99,0.00,40.00,0,0,0,0.00
2013-9-7,-200,0,200,-100,-100,-100,99,98,99,0.00,40.00,0,0,0,0.00
2013-9-8,-200,0,200,-100,-100,-100,99,99,99,0.00,40.00,0,0,0,0.00
2013-9-9,-200,0,200,-100,-100,-100,99,99,99,0.00,40.00,0,0,0,0.00
2013-9-10,-200,0,200,-100,-100,-100,99,99,99,0.00,40.00,0,0,0,0.00
2013-9-11,-200,0,200,-100,-100,-100,99,99,99,0.00,40.00,0,0,0,0.00
2013-9-12,-200,0,200,-100,-100,-100,99,99,99,0.00,40.00,0,0,0,0.00
2013-9-13,54,14,38,44,-54,-100,99,93,48,0.00,40.00,4,0,9,0.00
2013-9-14,73,53,32,44,34,-100,94,58,27,0.00,40.00,9,3,22,0.00
2013-9-15,65,57,53,57,50,42,91,78,54,0.00,40.00,7,2,14,0.00
2013-9-16,66,48,35,44,36,30,93,70,27,0.00,40.00,3,1,13,0.00
2013-9-17,60,19,30,53,-33,-100,99,95,61,0.00,40.00,4,0,9,0.00
2013-9-18,-200,0,200,-100,-100,-100,99,99,99,0.00,40.00,0,0,0,0.00
2013-9-19,-200,0,200,-100,-100,-100,99,99,99,0.00,40.00,0,0,0,0.00
2013-9-20,-200,0,200,-100,-100,-100,99,99,99,0.00,40.00,0,0,0,0.00
2013-9-21,53,12,41,47,-65,-100,99,95,61,0.00,40.00,8,1,15,0.00
2013-9-22,40,35,33,38,33,31,93,93,93,0.00,40.00,1,0,1,0.00
2013-9-23,66,31,33,53,-8,-100,99,87,41,0.00,40.00,4,1,13,0.00
2013-9-24,68,25,36,53,-20,-100,99,92,45,0.00,40.00,2,0,7,0.00
2013-9-25,59,2,59,56,-94,-100,99,99,90,0.00,40.00,2,0,9,0.00
2013-9-26,44,20,44,42,-35,-100,99,96,92,0.00,40.00,0,0,1,0.00
2013-9-27,64,22,41,56,-32,-100,99,95,75,0.00,40.00,2,0,8,0.00
2013-9-28,74,18,45,55,-58,-100,99,89,41,0.00,40.00,12,1,24,0.00
2013-9-29,45,20,38,42,-34,-100,99,96,90,0.00,40.00,0,0,1,0.00
2013-9-30,73,57,36,46,39,34,94,58,28,0.00,40.00,11,4,23,0.00
2013-10-1,75,8,75,44,-84,-100,99,92,33,0.00,40.00,4,1,10,0.00
2013-10-2,76,30,37,49,-26,-100,99,79,20,0.00,40.00,7,1,11,0.00
2013-10-3,56,3,56,54,-92,-100,99,99,92,0.00,40.00,2,0,8,0.00
2013-10-4,58,56,55,56,54,53,93,93,92,0.00,40.00,4,2,13,0.00
2013-10-5,67,62,57,65,60,55,93,93,93,0.00,40.00,6,2,19,0.00
2013-10-6,59,51,40,54,38,30,92,66,34,0.00,40.00,8,2,16,0.00
2013-10-7,65,51,39,45,39,32,91,69,30,0.00,40.00,9,5,19,0.00
2013-10-8,75,52,32,49,37,30,93,66,26,0.00,40.00,12,3,21,0.00
2013-10-9,74,30,38,48,-32,-100,99,76,31,0.00,40.00,7,2,18,0.00
2013-10-10,75,38,35,53,-12,-100,99,72,28,0.00,40.00,4,1,14,0.00
2013-10-11,75,58,40,56,46,38,93,68,39,0.00,40.00,9,-54,25,0.00
2013-10-12,65,33,57,56,-18,-100,99,84,64,0.00,40.00,7,-44,14,0.00
2013-10-13,59,20,32,42,-40,-100,99,87,28,0.00,40.00,9,-45,21,0.00
2013-10-14,55,18,27,44,-31,-100,99,94,49,0.00,40.00,2,0,9,0.00
2013-10-15,57,50,45,54,46,39,93,86,64,0.00,40.00,6,2,17,0.00
2013-10-16,52,48,39,47,43,35,93,83,67,0.00,40.00,6,3,11,0.00
2013-10-17,47,24,35,44,-14,-100,99,93,68,0.00,40.00,3,0,6,0.00
2013-10-18,46,31,34,43,3,-100,99,91,72,0.00,40.00,11,2,20,0.00
2013-10-19,53,37,27,37,29,-100,93,79,34,0.00,40.00,8,2,16,0.00
2013-10-20,46,39,33,43,37,31,94,92,88,0.00,40.00,7,2,14,0.00
2013-10-21,44,37,33,40,23,14,84,58,39,0.00,40.00,12,7,22,0.00
2013-10-22,44,34,27,27,21,17,82,61,37,0.00,40.00,7,4,17,0.00
2013-10-23,40,31,21,28,23,17,91,73,39,0.00,40.00,7,3,14,0.00
2013-10-24,42,35,31,25,22,18,73,58,39,0.00,40.00,11,5,18,0.00
2013-10-25,51,39,24,28,23,20,92,58,32,0.00,40.00,12,5,26,0.00
2013-10-26,50,46,40,32,24,-100,64,43,34,0.00,40.00,16,-37,32,0.00
2013-10-27,55,38,24,32,24,20,93,63,27,0.00,40.00,7,3,20,0.00
2013-10-28,39,34,29,30,23,-100,80,67,59,0.00,40.00,4,2,12,0.00
2013-10-29,49,33,26,38,27,21,92,81,53,0.00,40.00,2,-118,7,0.00
2013-10-30,54,46,36,51,43,34,93,90,78,0.00,40.00,2,1,9,0.00
2013-10-31,56,51,42,54,49,40,93,93,93,0.00,40.00,11,-9,18,0.00
2013-11-1,45,42,40,41,38,35,91,86,79,0.00,40.00,11,6,24,0.00
2013-11-2,40,38,35,36,34,33,91,85,82,0.00,40.00,5,4,12,0.00
2013-11-3,50,37,23,39,29,21,93,75,37,0.00,40.00,4,2,14,0.00
2013-11-4,47,45,40,34,33,33,75,64,58,0.00,40.00,7,4,18,0.00
2013-11-5,52,47,34,49,41,31,93,82,48,0.00,40.00,6,2,17,0.00
2013-11-6,53,40,29,51,31,15,93,72,41,0.00,40.00,11,6,19,0.00
2013-11-7,42,32,23,27,22,19,91,71,43,0.00,40.00,8,3,14,0.00
2013-11-8,42,33,20,30,24,17,92,73,51,0.00,40.00,6,2,14,0.00
2013-11-9,40,39,39,27,23,-100,61,57,46,0.00,40.00,9,5,22,0.00
2013-11-10,38,38,38,21,21,21,50,50,50,0.00,40.00,10,10,22,0.00
2013-11-11,38,23,22,32,-8,-100,99,65,38,0.00,40.00,14,6,22,0.00
2013-11-12,29,21,14,11,6,2,74,54,33,0.00,40.00,9,4,14,0.00
2013-11-13,44,30,15,17,12,9,79,50,31,0.00,40.00,14,6,26,0.00
2013-11-14,48,40,31,23,18,10,66,41,34,0.00,40.00,7,4,15,0.00
2013-11-15,49,21,25,30,-16,-100,99,88,46,0.00,40.00,4,1,9,0.00
2013-11-16,57,42,28,54,39,-100,94,92,90,0.00,40.00,11,4,20,0.00
2013-11-17,57,3,56,54,-91,-100,99,98,90,0.00,40.00,7,0,17,0.00
2013-11-18,36,30,26,24,12,-100,99,59,51,0.00,40.00,14,9,31,0.00
2013-11-19,26,19,15,15,14,12,88,80,64,0.00,40.00,6,2,12,0.00
2013-11-21,40,39,34,38,36,31,93,92,86,0.00,40.00,6,4,18,0.00
2013-11-22,33,30,27,28,22,15,85,74,48,0.00,40.00,13,7,21,0.00
2013-11-23,18,13,6,-1,-5,-100,64,47,37,0.00,40.00,14,7,29,0.00
2013-11-24,26,15,0,5,-2,-5,82,52,26,0.00,40.00,11,5,22,0.00
2013-11-25,33,28,23,23,15,-1,73,59,32,0.00,40.00,11,6,19,0.00
2013-11-26,34,24,12,22,9,-1,69,53,43,0.00,40.00,12,7,21,0.00
2013-11-27,27,17,8,10,3,-1,79,56,34,0.00,40.00,10,4,17,0.00
2013-11-28,29,22,15,11,9,4,80,58,47,0.00,40.00,12,3,19,0.00
2013-11-29,24,17,4,18,13,1,88,82,78,0.00,40.00,3,-42,6,0.00
2013-11-30,41,21,24,24,-15,-100,99,78,46,0.00,40.00,6,2,12,0.00
2013-12-1,40,29,21,27,21,15,92,75,41,0.00,40.00,4,1,7,0.00
2013-12-2,40,27,14,31,22,11,93,81,57,0.00,40.00,5,2,14,0.00
2013-12-3,33,32,32,32,31,30,94,94,93,0.00,40.00,6,3,17,0.00
2013-12-4,32,32,32,31,31,30,94,94,94,0.00,40.00,4,3,11,0.00
2013-12-6,9,5,2,-5,-6,-7,67,59,52,0.00,40.00,9,6,20,0.00
2013-12-7,12,3,-4,-6,-10,-100,74,58,39,0.00,40.00,9,4,21,0.00
2013-12-8,13,11,3,8,2,-12,82,71,49,0.00,40.00,4,2,12,0.00
2013-12-9,16,8,-3,9,-1,-12,83,67,45,0.00,40.00,12,5,26,0.00
2013-12-10,9,3,-3,-3,-8,-12,65,60,52,0.00,40.00,4,4,11,0.00
2013-12-11,10,1,-14,5,-9,-21,81,62,39,0.00,40.00,10,5,17,0.00
2013-12-12,21,9,-11,6,-2,-17,76,62,43,0.00,40.00,7,-39,14,0.00
2013-12-13,20,16,13,9,5,1,73,62,53,0.00,40.00,4,2,15,0.00
2013-12-14,18,15,13,14,4,-100,84,68,59,0.00,40.00,7,4,12,0.00
2013-12-15,15,6,-4,9,-6,-15,79,59,37,0.00,40.00,12,7,24,0.00
2013-12-16,13,4,-7,9,-4,-15,86,71,55,0.00,40.00,4,2,9,0.00
2013-12-17,32,24,14,24,16,6,89,74,49,0.00,40.00,11,6,21,0.00
2013-12-18,33,19,5,21,8,-1,78,64,41,0.00,40.00,9,3,17,0.00
2013-12-19,27,24,19,24,17,13,92,76,61,0.00,40.00,5,3,18,0.00
2013-12-20,22,20,18,19,17,15,90,88,84,0.00,40.00,6,2,14,0.00
2013-12-21,26,23,21,24,20,-100,92,89,86,0.00,40.00,5,2,14,0.00
2013-12-22,24,22,20,21,18,16,90,85,72,0.00,40.00,7,4,14,0.00
2013-12-23,20,11,0,18,7,-5,90,83,72,0.00,40.00,7,4,13,0.00
2013-12-24,13,2,-14,3,-4,-19,81,75,54,0.00,40.00,6,2,11,0.00
2013-12-25,21,15,7,18,10,2,88,82,70,0.00,40.00,6,3,14,0.00
2013-12-26,19,15,11,15,10,8,87,82,78,0.00,40.00,6,4,11,0.00
2013-12-27,35,21,2,26,14,-2,88,75,61,0.00,40.00,9,3,13,0.00
2013-12-28,43,17,19,30,-27,-100,99,88,50,0.00,40.00,7,2,12,0.00
2013-12-29,24,10,0,20,-23,-100,99,74,52,0.00,40.00,12,6,25,0.00
2013-12-30,2,-2,-15,-6,-13,-22,76,60,39,0.00,40.00,5,2,7,0.00
2013-12-31,7,1,-7,-4,-8,-16,78,67,54,0.00,40.00,6,4,12,0.00
2014-1-1,8,0,-7,-6,-12,-16,63,56,43,0.00,40.00,5,2,11,0.00
2014-1-2,9,3,-11,-4,-8,-17,74,59,42,0.00,40.00,11,4,17,0.00